SPOT 6

Satellite information

Favourite Embed

Satellite Type and Status

PAYLOADIN ORBIT

Key statistics

Satellite SPOT 6 at a glance.

Uptime

4792

Days in orbit

Revolutions

≈ 14.6

Per day

Orbit

SSO

Sun Synchronous Orbit

Inclination

98.2

Latest

Satellite identification and parameters

Extended collection of information and parameters for SPOT 6.

Object identification

Identified? True

Debris? False

Object name: SPOT 6

International designator: 2012-047A

Object number (NORAD): 38755

Object ID (CCSDS): 38755

Country: FRANCE (FR)

Current information (Y/N): Y

RCS size: LARGE

Orbital parameters

Period: 98.726 minutes

Inclination: 98.164 deg

SMA: 7075.872 km

Apoapsis: 698.461 km

Periapsis: 697.014 km

RAAN: 0.5304 deg

Eccentricy: 0.0001022

Argument of periapsis: 99.3819 deg

Mean anomaly: 260.7496 deg

Mean motion: 14.58588434 rev/day

Mean motion (dot): 0.00000722 rev/day2

B* drag term: 0.00016505 1/REarth

Two-line elements (TLE)

Creation date: Oct. 21, 2025, 11:56 p.m.

Reference frame: TEME

Reference center: EARTH

Epoch: Oct. 21, 2025, 7:22 p.m. UTC

TLE line 0: 0 SPOT 6

TLE line 1: 1 38755U 12047A 25294.80733941 .00000722 00000-0 16505-3 0 9990

TLE line 2: 2 38755 98.1640 0.5304 0001022 99.3819 260.7496 14.58588434698304

Live tracking on map

Real-time ground track for satellite SPOT 6.

In-orbit conjunctions

There are no conjunctions computed for SPOT 6, at the moment. Check back to stay up to date, as we update our databases every day.

Go to all conjunctions

Associated space launch

SPOT 6 was lifted into orbit during the mission ‘PSLV-CA | SPOT 6 & PROITERES’, on board a PSLV space rocket.

The launch took place on Sept. 9, 2012, 4:23 a.m. from Satish Dhawan Space Centre First Launch Pad.

For more information about the launch, click the button.

Launch to space PSLV-CA | SPOT 6 & PROITERES
PSLV-CA | SPOT 6 & PROITERES

Agency: N/A

Status: Launch Successful

Launch date: Sept. 9, 2012, 4:23 a.m. UTC

Rocket: PSLV

Launch pad: Satish Dhawan Space Centre First Launch Pad

Location: Satish Dhawan Space Centre, India

...

Latest news about this satellite

There are no fresh news available about this satellite. Check back as we update our databases every day.


Newsletter sign-up

Weekly statistics, charts and insights to help you stay on top of the space industry.